This is the latest recevied weather packets stored in our database for station/object KE8WAY. If no packets are shown the sender has not sent any weather packets the latest 1 day(s).
| Time | Temp. | Humidity | Pressure | Rain* | Wind** | Luminosity | Snow |
|---|---|---|---|---|---|---|---|
| 1777995130 | 16.67° C | 69% | 1006.3 hPa | 0 mm | 2.24 m/s, 266° | 125 W/m² | - |
| 1777994826 | 16.67° C | 70% | 1006.3 hPa | 0 mm | 5.81 m/s, 252° | 170 W/m² | - |
| 1777994523 | 16.67° C | 72% | 1006.2 hPa | 0 mm | 3.58 m/s, 226° | 223 W/m² | - |
| 1777994217 | 16.67° C | 72% | 1006.3 hPa | 0 mm | 5.81 m/s, 255° | 79 W/m² | - |
| 1777993915 | 16.67° C | 72% | 1006.3 hPa | 0 mm | 5.36 m/s, 237° | 75 W/m² | - |
| 1777993611 | 16.67° C | 71% | 1006.2 hPa | 0 mm | 6.71 m/s, 250° | 100 W/m² | - |
| 1777993309 | 16.67° C | 70% | 1006.1 hPa | 0 mm | 4.02 m/s, 250° | 97 W/m² | - |
| 1777993003 | 17.22° C | 70% | 1005.6 hPa | 0 mm | 7.6 m/s, 242° | 185 W/m² | - |
| 1777992702 | 16.67° C | 70% | 1005.7 hPa | 0 mm | 9.39 m/s, 231° | 264 W/m² | - |
| 1777992399 | 17.22° C | 70% | 1005.7 hPa | 0 mm | 9.39 m/s, 255° | 164 W/m² | - |
| 1777992097 | 17.22° C | 70% | 1005.7 hPa | 0 mm | 6.26 m/s, 276° | 230 W/m² | - |
| 1777991794 | 16.67° C | 71% | 1005.5 hPa | 0 mm | 5.36 m/s, 222° | 216 W/m² | - |
| 1777991491 | 16.67° C | 70% | 1005.2 hPa | 0 mm | 8.05 m/s, 233° | 235 W/m² | - |
| 1777991188 | 16.67° C | 71% | 1004.9 hPa | 0 mm | 7.15 m/s, 230° | 237 W/m² | - |
| 1777990886 | 16.67° C | 69% | 1005 hPa | 0 mm | 8.05 m/s, 238° | 199 W/m² | - |
| 1777990583 | 17.22° C | 69% | 1004.7 hPa | 0 mm | 6.26 m/s, 287° | 327 W/m² | - |
| 1777990280 | 16.67° C | 71% | 1004.2 hPa | 0 mm | 6.26 m/s, 219° | 379 W/m² | - |
| 1777989977 | 16.67° C | 71% | 1004.2 hPa | 0 mm | 7.6 m/s, 240° | 420 W/m² | - |
| 1777989674 | 16.67° C | 71% | 1004.6 hPa | 0 mm | 8.05 m/s, 223° | 472 W/m² | - |
| 1777989369 | 16.67° C | 71% | 1004.5 hPa | 0 mm | 8.49 m/s, 222° | 426 W/m² | - |
| 1777989066 | 16.67° C | 71% | 1004.2 hPa | 0 mm | 6.26 m/s, 232° | 404 W/m² | - |
| 1777988762 | 16.67° C | 72% | 1004.1 hPa | 0 mm | 6.71 m/s, 226° | 381 W/m² | - |
| 1777988460 | 16.67° C | 72% | 1004.2 hPa | 0 mm | 8.05 m/s, 235° | 399 W/m² | - |
| 1777988156 | 16.67° C | 72% | 1004.7 hPa | 0 mm | 7.15 m/s, 244° | 223 W/m² | - |
| 1777987852 | 16.67° C | 72% | 1004.7 hPa | 0 mm | 9.83 m/s, 228° | 229 W/m² | - |
* Rain latest hour (hover to see other rain measurements)
** Current wind speed in m/s (hover to see current wind gust speed)